| time (UTC) | temp F | wind direction | speed MPH | gust MPH | rain 1hr in | rain 24hr in | rain mn in | humidity % | barometer mb |
| 20260903185605 | 72 | 112 | 7.0 | 18.0 | 0.00 | 0.00 | 0.00 | 85 | 1018.3 |
| 20260903185104 | 72 | 289 | 7.0 | 18.0 | 0.00 | 0.00 | 0.00 | 85 | 1018.4 |
| 20260903184606 | 72 | 303 | 5.0 | 16.0 | 0.00 | 0.00 | 0.00 | 85 | 1018.3 |
| 20260903183605 | 72 | 314 | 4.0 | 11.0 | 0.00 | 0.00 | 0.00 | 85 | 1018.3 |
| 20260903183103 | 72 | 310 | 4.0 | 16.0 | 0.00 | 0.00 | 0.00 | 86 | 1018.3 |
| 20260903182606 | 72 | 301 | 5.0 | 16.0 | 0.00 | 0.00 | 0.00 | 86 | 1018.3 |
| 20260903182105 | 72 | 313 | 5.0 | 20.0 | 0.00 | 0.00 | 0.00 | 86 | 1018.4 |
| 20260903181607 | 72 | 296 | 4.0 | 20.0 | 0.00 | 0.00 | 0.00 | 86 | 1018.4 |
| 20260903181106 | 72 | 247 | 4.0 | 12.0 | 0.00 | 0.00 | 0.00 | 86 | 1018.4 |
| 20260903180104 | 72 | 313 | 4.0 | 16.0 | 0.00 | 0.00 | 0.00 | 86 | 1018.2 |
| 20260903175559 | 72 | 299 | 4.0 | 11.0 | 0.00 | 0.00 | 0.00 | 86 | 1018.2 |
| 20260903175054 | 72 | 324 | 5.0 | 12.0 | 0.00 | 0.00 | 0.00 | 85 | 1018.3 |
| 20260903174555 | 72 | 324 | 4.0 | 16.0 | 0.00 | 0.00 | 0.00 | 85 | 1018.3 |
| 20260903174055 | 72 | 328 | 4.0 | 16.0 | 0.00 | 0.00 | 0.00 | 85 | 1018.4 |
| 20260903172549 | 73 | 320 | 5.0 | 16.0 | 0.00 | 0.00 | 0.00 | 84 | 1018.3 |
| 20260903172049 | 73 | 333 | 4.0 | 12.0 | 0.00 | 0.00 | 0.00 | 84 | 1018.5 |
| 20260903171545 | 73 | 284 | 5.0 | 14.0 | 0.00 | 0.00 | 0.00 | 84 | 1018.5 |
| 20260903171045 | 73 | 292 | 4.0 | 14.0 | 0.00 | 0.00 | 0.00 | 84 | 1018.4 |
| 20260903170543 | 73 | 342 | 4.0 | 22.0 | 0.00 | 0.00 | 0.00 | 84 | 1018.5 |
| 20260903170044 | 73 | 323 | 5.0 | 22.0 | 0.00 | 0.00 | 0.00 | 83 | 1018.6 |
| 20260903165546 | 73 | 297 | 5.0 | 16.0 | 0.00 | 0.00 | 0.00 | 83 | 1018.5 |
| 20260903165043 | 73 | 301 | 7.0 | 16.0 | 0.00 | 0.00 | 0.00 | 83 | 1018.5 |
| 20260903164542 | 73 | 275 | 4.0 | 14.0 | 0.00 | 0.00 | 0.00 | 83 | 1018.5 |
| 20260903164041 | 73 | 293 | 4.0 | 12.0 | 0.00 | 0.00 | 0.00 | 83 | 1018.3 |
| 20260903163044 | 74 | 293 | 5.0 | 18.0 | 0.00 | 0.00 | 0.00 | 82 | 1018.4 |
| 20260903162540 | 74 | 301 | 4.0 | 12.0 | 0.00 | 0.00 | 0.00 | 82 | 1018.5 |
| 20260903161540 | 74 | 262 | 4.0 | 16.0 | 0.00 | 0.00 | 0.00 | 81 | 1018.2 |
| 20260903161042 | 74 | 125 | 4.0 | 16.0 | 0.00 | 0.00 | 0.00 | 81 | 1018.2 |
| 20260903160535 | 74 | 286 | 4.0 | 14.0 | 0.00 | 0.00 | 0.00 | 81 | 1018.2 |
| 20260903160035 | 74 | 237 | 5.0 | 16.0 | 0.00 | 0.00 | 0.00 | 81 | 1018.2 |
| 20260903155534 | 74 | 294 | 5.0 | 16.0 | 0.00 | 0.00 | 0.00 | 81 | 1018.3 |
| 20260903155032 | 74 | 159 | 5.0 | 14.0 | 0.00 | 0.00 | 0.00 | 83 | 1018.3 |
| 20260903154532 | 73 | 284 | 5.0 | 18.0 | 0.00 | 0.00 | 0.00 | 83 | 1018.3 |
| 20260903154032 | 73 | 299 | 5.0 | 18.0 | 0.00 | 0.00 | 0.00 | 83 | 1018.5 |
| 20260903153533 | 73 | 285 | 4.0 | 20.0 | 0.00 | 0.00 | 0.00 | 84 | 1018.5 |
| 20260903153030 | 73 | 234 | 4.0 | 20.0 | 0.00 | 0.00 | 0.00 | 84 | 1018.3 |
| 20260903152532 | 73 | 216 | 5.0 | 23.0 | 0.00 | 0.00 | 0.00 | 85 | 1018.5 |
| 20260903152030 | 72 | 297 | 7.0 | 23.0 | 0.00 | 0.00 | 0.00 | 85 | 1018.6 |
| 20260903151534 | 72 | 313 | 7.0 | 18.0 | 0.00 | 0.00 | 0.00 | 85 | 1018.6 |
| 20260903151030 | 72 | 291 | 7.0 | 20.0 | 0.00 | 0.00 | 0.00 | 85 | 1018.6 |
| 20260903150531 | 72 | 212 | 7.0 | 20.0 | 0.00 | 0.00 | 0.00 | 85 | 1018.6 |
| 20260903145030 | 72 | 276 | 7.0 | 23.0 | 0.00 | 0.00 | 0.00 | 85 | 1018.8 |
| 20260903144531 | 73 | 244 | 4.0 | 14.0 | 0.00 | 0.00 | 0.00 | 84 | 1018.7 |
| 20260903144031 | 73 | 293 | 4.0 | 14.0 | 0.00 | 0.00 | 0.00 | 83 | 1018.8 |
| 20260903143532 | 73 | 289 | 4.0 | 16.0 | 0.00 | 0.00 | 0.00 | 82 | 1018.7 |
| 20260903143034 | 73 | 295 | 5.0 | 22.0 | 0.00 | 0.00 | 0.00 | 81 | 1018.7 |
| 20260903142533 | 73 | 315 | 5.0 | 22.0 | 0.00 | 0.00 | 0.00 | 81 | 1018.7 |
| 20260903142035 | 73 | 276 | 5.0 | 16.0 | 0.00 | 0.00 | 0.00 | 80 | 1018.7 |
| 20260903141534 | 74 | 30 | 5.0 | 20.0 | 0.00 | 0.00 | 0.00 | 81 | 1018.7 |
| 20260903141033 | 73 | 308 | 7.0 | 20.0 | 0.00 | 0.00 | 0.00 | 81 | 1018.6 |
| 20260903140533 | 73 | 172 | 7.0 | 20.0 | 0.00 | 0.00 | 0.00 | 81 | 1018.7 |
| 20260903140034 | 73 | 140 | 7.0 | 20.0 | 0.00 | 0.00 | 0.00 | 80 | 1018.6 |
| 20260903135530 | 74 | 245 | 7.0 | 16.0 | 0.00 | 0.00 | 0.00 | 80 | 1018.7 |
| 20260903135033 | 74 | 300 | 9.0 | 20.0 | 0.00 | 0.00 | 0.00 | 80 | 1018.8 |
| 20260903134529 | 74 | 284 | 7.0 | 20.0 | 0.00 | 0.00 | 0.00 | 80 | 1018.7 |
| 20260903134032 | 74 | 278 | 7.0 | 25.0 | 0.00 | 0.00 | 0.00 | 80 | 1018.6 |
| 20260903133031 | 73 | 336 | 7.0 | 20.0 | 0.00 | 0.00 | 0.00 | 80 | 1018.7 |
| 20260903132029 | 73 | 243 | 7.0 | 22.0 | 0.00 | 0.00 | 0.00 | 80 | 1018.6 |
| 20260903131028 | 74 | 299 | 9.0 | 22.0 | 0.00 | 0.00 | 0.00 | 80 | 1018.6 |
| 20260903130528 | 74 | 295 | 9.0 | 20.0 | 0.00 | 0.00 | 0.00 | 79 | 1018.7 |
| 20260903130027 | 74 | 282 | 7.0 | 20.0 | 0.00 | 0.00 | 0.00 | 80 | 1018.7 |
| 20260903125523 | 74 | 307 | 7.0 | 16.0 | 0.00 | 0.00 | 0.00 | 81 | 1018.7 |
| 20260903125025 | 74 | 283 | 7.0 | 18.0 | 0.00 | 0.00 | 0.00 | 80 | 1018.7 |
| 20260903124023 | 74 | 328 | 7.0 | 20.0 | 0.00 | 0.00 | 0.00 | 80 | 1018.5 |
| 20260903123523 | 74 | 282 | 9.0 | 20.0 | 0.00 | 0.00 | 0.00 | 80 | 1018.6 |
| 20260903123021 | 73 | 287 | 7.0 | 22.0 | 0.00 | 0.00 | 0.00 | 79 | 1018.8 |
| 20260903122521 | 74 | 280 | 9.0 | 25.0 | 0.00 | 0.00 | 0.00 | 79 | 1018.6 |
| 20260903122022 | 73 | 297 | 9.0 | 25.0 | 0.00 | 0.00 | 0.00 | 80 | 1018.6 |
| 20260903121524 | 73 | 328 | 7.0 | 22.0 | 0.00 | 0.00 | 0.00 | 80 | 1018.7 |
| 20260903121023 | 73 | 213 | 7.0 | 23.0 | 0.00 | 0.00 | 0.00 | 81 | 1018.7 |
| 20260903120523 | 73 | 293 | 9.0 | 23.0 | 0.00 | 0.00 | 0.00 | 81 | 1018.6 |
| 20260903120020 | 73 | 305 | 9.0 | 18.0 | 0.00 | 0.00 | 0.00 | 81 | 1018.7 |
| 20260903115522 | 73 | 319 | 7.0 | 20.0 | 0.00 | 0.00 | 0.00 | 82 | 1018.8 |
| 20260903115021 | 72 | 316 | 9.0 | 20.0 | 0.00 | 0.00 | 0.00 | 83 | 1018.6 |
| 20260903114524 | 71 | 301 | 7.0 | 20.0 | 0.00 | 0.00 | 0.00 | 84 | 1018.7 |
| 20260903114022 | 71 | 281 | 5.0 | 20.0 | 0.00 | 0.00 | 0.00 | 84 | 1018.7 |
| 20260903113523 | 71 | 302 | 5.0 | 20.0 | 0.00 | 0.00 | 0.00 | 83 | 1018.8 |
| 20260903112521 | 71 | 321 | 7.0 | 23.0 | 0.00 | 0.00 | 0.00 | 83 | 1018.8 |
| 20260903112022 | 71 | 298 | 7.0 | 18.0 | 0.00 | 0.00 | 0.00 | 83 | 1018.7 |
| 20260903111524 | 71 | 305 | 5.0 | 18.0 | 0.00 | 0.00 | 0.00 | 83 | 1018.6 |
| 20260903111021 | 71 | 356 | 5.0 | 12.0 | 0.00 | 0.00 | 0.00 | 83 | 1018.8 |
| 20260903110523 | 71 | 302 | 5.0 | 16.0 | 0.00 | 0.00 | 0.00 | 83 | 1018.7 |
| 20260903110020 | 71 | 307 | 7.0 | 16.0 | 0.00 | 0.00 | 0.00 | 83 | 1018.7 |
| 20260903105024 | 71 | 41 | 9.0 | 23.0 | 0.00 | 0.00 | 0.00 | 82 | 1018.6 |
| 20260903104021 | 73 | 150 | 7.0 | 16.0 | 0.00 | 0.00 | 0.00 | 81 | 1018.5 |
| 20260903103517 | 72 | 338 | 7.0 | 18.0 | 0.00 | 0.00 | 0.00 | 83 | 1018.6 |
| 20260903102519 | 71 | 160 | 7.0 | 23.0 | 0.00 | 0.00 | 0.00 | 84 | 1018.6 |
| 20260903102013 | 69 | 320 | 9.0 | 23.0 | 0.00 | 0.00 | 0.00 | 86 | 1018.7 |
| 20260903101515 | 69 | 271 | 7.0 | 20.0 | 0.00 | 0.00 | 0.00 | 86 | 1018.8 |
| 20260903101014 | 69 | 280 | 7.0 | 20.0 | 0.00 | 0.00 | 0.00 | 87 | 1018.8 |
| 20260903100510 | 68 | 323 | 9.0 | 20.0 | 0.00 | 0.00 | 0.00 | 86 | 1018.8 |
| 20260903100013 | 68 | 283 | 9.0 | 18.0 | 0.00 | 0.00 | 0.00 | 87 | 1019.0 |
| 20260903095508 | 68 | 213 | 7.0 | 16.0 | 0.00 | 0.00 | 0.00 | 87 | 1018.8 |
| 20260903095008 | 68 | 308 | 9.0 | 16.0 | 0.00 | 0.00 | 0.00 | 87 | 1018.7 |
| 20260903094509 | 68 | 305 | 7.0 | 16.0 | 0.00 | 0.00 | 0.00 | 86 | 1018.6 |
| 20260903094009 | 68 | 293 | 5.0 | 18.0 | 0.00 | 0.00 | 0.00 | 86 | 1018.5 |
| 20260903093507 | 68 | 268 | 7.0 | 18.0 | 0.00 | 0.00 | 0.00 | 86 | 1018.5 |
| 20260903093009 | 68 | 285 | 9.0 | 16.0 | 0.00 | 0.00 | 0.00 | 86 | 1018.3 |
| 20260903092505 | 68 | 315 | 7.0 | 20.0 | 0.00 | 0.00 | 0.00 | 86 | 1018.3 |
| 20260903092006 | 68 | 291 | 7.0 | 20.0 | 0.00 | 0.00 | 0.00 | 86 | 1018.4 |
| 20260903091504 | 68 | 304 | 5.0 | 18.0 | 0.00 | 0.00 | 0.00 | 86 | 1018.3 |
| 20260903091005 | 68 | 349 | 5.0 | 20.0 | 0.00 | 0.00 | 0.00 | 86 | 1018.2 |
| 20260903090504 | 68 | 280 | 5.0 | 20.0 | 0.00 | 0.00 | 0.00 | 86 | 1018.3 |
| 20260903090002 | 68 | 327 | 5.0 | 18.0 | 0.00 | 0.00 | 0.00 | 86 | 1018.2 |
| 20260903085504 | 68 | 307 | 5.0 | 18.0 | 0.00 | 0.00 | 0.00 | 86 | 1018.2 |
| 20260903084504 | 68 | 262 | 5.0 | 18.0 | 0.00 | 0.00 | 0.00 | 86 | 1018.2 |
| 20260903084003 | 68 | 296 | 7.0 | 18.0 | 0.00 | 0.00 | 0.00 | 86 | 1018.0 |
| 20260903083505 | 68 | 318 | 5.0 | 16.0 | 0.00 | 0.00 | 0.00 | 85 | 1018.1 |
| 20260903083003 | 68 | 308 | 5.0 | 14.0 | 0.00 | 0.00 | 0.00 | 85 | 1018.1 |
| 20260903082503 | 68 | 203 | 5.0 | 14.0 | 0.00 | 0.00 | 0.00 | 85 | 1018.2 |
| 20260903082004 | 68 | 298 | 7.0 | 16.0 | 0.00 | 0.00 | 0.00 | 85 | 1018.3 |
| 20260903081501 | 68 | 328 | 7.0 | 18.0 | 0.00 | 0.00 | 0.00 | 85 | 1018.3 |
| 20260903081003 | 68 | 166 | 5.0 | 18.0 | 0.00 | 0.00 | 0.00 | 85 | 1018.3 |
| 20260903080501 | 68 | 301 | 5.0 | 18.0 | 0.00 | 0.00 | 0.00 | 85 | 1018.2 |
| 20260903080004 | 68 | 280 | 7.0 | 16.0 | 0.00 | 0.00 | 0.00 | 85 | 1018.2 |
| 20260903075457 | 68 | 299 | 9.0 | 18.0 | 0.00 | 0.00 | 0.00 | 85 | 1018.1 |
| 20260903074948 | 68 | 201 | 9.0 | 22.0 | 0.00 | 0.00 | 0.00 | 85 | 1018.1 |
| 20260903074449 | 68 | 332 | 7.0 | 25.0 | 0.00 | 0.00 | 0.00 | 85 | 1018.1 |
| 20260903072946 | 68 | 183 | 7.0 | 29.0 | 0.00 | 0.00 | 0.00 | 84 | 1018.1 |
| 20260903072449 | 68 | 325 | 7.0 | 22.0 | 0.00 | 0.00 | 0.00 | 84 | 1018.1 |
| 20260903071948 | 68 | 293 | 9.0 | 25.0 | 0.00 | 0.00 | 0.00 | 84 | 1018.1 |
| 20260903071446 | 68 | 285 | 9.0 | 25.0 | 0.00 | 0.00 | 0.00 | 84 | 1018.0 |
| 20260903070947 | 68 | 315 | 9.0 | 22.0 | 0.00 | 0.00 | 0.00 | 84 | 1017.9 |
| 20260903070444 | 68 | 291 | 7.0 | 22.0 | 0.00 | 0.00 | 0.00 | 84 | 1017.9 |
| 20260903065944 | 68 | 8 | 7.0 | 20.0 | 0.00 | 0.00 | 0.00 | 84 | 1017.9 |
| 20260903065440 | 68 | 324 | 7.0 | 20.0 | 0.00 | 0.00 | 0.00 | 84 | 1017.7 |
| 20260903064940 | 68 | 311 | 7.0 | 25.0 | 0.00 | 0.00 | 0.00 | 84 | 1017.8 |
| 20260903064441 | 68 | 299 | 7.0 | 25.0 | 0.00 | 0.00 | 0.00 | 84 | 1017.9 |
| 20260903063440 | 67 | 297 | 7.0 | 27.0 | 0.00 | 0.00 | 0.00 | 84 | 1017.6 |
| 20260903062441 | 67 | 270 | 5.0 | 18.0 | 0.00 | 0.00 | 0.00 | 84 | 1017.6 |
| 20260903061940 | 67 | 268 | 5.0 | 18.0 | 0.00 | 0.00 | 0.00 | 84 | 1017.7 |
| 20260903061440 | 67 | 300 | 4.0 | 11.0 | 0.00 | 0.00 | 0.00 | 83 | 1017.5 |
| 20260903060941 | 67 | 304 | 5.0 | 18.0 | 0.00 | 0.00 | 0.00 | 83 | 1017.7 |
| 20260903060434 | 67 | 313 | 7.0 | 20.0 | 0.00 | 0.00 | 0.00 | 83 | 1017.8 |
| 20260903055936 | 67 | 15 | 5.0 | 20.0 | 0.00 | 0.00 | 0.00 | 83 | 1017.8 |
| 20260903055432 | 67 | 278 | 4.0 | 11.0 | 0.00 | 0.00 | 0.00 | 83 | 1017.7 |
| 20260903054430 | 67 | 317 | 5.0 | 14.0 | 0.00 | 0.00 | 0.00 | 83 | 1017.6 |
| 20260903053930 | 67 | 301 | 5.0 | 12.0 | 0.00 | 0.00 | 0.00 | 82 | 1017.6 |
| 20260903052429 | 67 | 285 | 5.0 | 16.0 | 0.00 | 0.00 | 0.00 | 82 | 1017.8 |
| 20260903051927 | 67 | 284 | 5.0 | 20.0 | 0.00 | 0.00 | 0.00 | 82 | 1017.8 |
| 20260903051427 | 67 | 307 | 5.0 | 20.0 | 0.00 | 0.00 | 0.00 | 81 | 1017.6 |
| 20260903050926 | 67 | 43 | 5.0 | 12.0 | 0.00 | 0.00 | 0.00 | 81 | 1017.7 |
| 20260903050426 | 67 | 147 | 5.0 | 12.0 | 0.00 | 0.00 | 0.00 | 81 | 1017.7 |
| 20260903045926 | 67 | 4 | 4.0 | 12.0 | 0.00 | 0.00 | 0.00 | 80 | 1017.7 |
| 20260903045423 | 67 | 334 | 4.0 | 18.0 | 0.00 | 0.00 | 0.00 | 80 | 1017.6 |
| 20260903044921 | 67 | 304 | 4.0 | 18.0 | 0.00 | 0.00 | 0.00 | 79 | 1017.4 |
| 20260903044420 | 67 | 319 | 4.0 | 14.0 | 0.00 | 0.00 | 0.00 | 79 | 1017.6 |
| 20260903043921 | 67 | 175 | 4.0 | 14.0 | 0.00 | 0.00 | 0.00 | 78 | 1017.4 |
| 20260903043420 | 67 | 306 | 4.0 | 14.0 | 0.00 | 0.00 | 0.00 | 77 | 1017.5 |
| 20260903042922 | 67 | 280 | 4.0 | 14.0 | 0.00 | 0.00 | 0.00 | 77 | 1017.6 |
| 20260903042422 | 67 | 303 | 4.0 | 14.0 | 0.00 | 0.00 | 0.00 | 75 | 1017.6 |
| 20260903041920 | 67 | 339 | 4.0 | 12.0 | 0.00 | 0.00 | 0.00 | 75 | 1017.7 |
| 20260903041420 | 67 | 301 | 4.0 | 20.0 | 0.00 | 0.00 | 0.00 | 74 | 1017.7 |
| 20260903040421 | 67 | 176 | 5.0 | 14.0 | 0.00 | 0.00 | 0.00 | 74 | 1017.9 |
| 20260903035919 | 67 | 206 | 4.0 | 16.0 | 0.00 | 0.00 | 0.00 | 74 | 1017.9 |
| 20260903035416 | 68 | 263 | 4.0 | 16.0 | 0.00 | 0.00 | 0.00 | 75 | 1017.9 |
| 20260903034416 | 68 | 83 | 5.0 | 16.0 | 0.00 | 0.00 | 0.00 | 75 | 1018.0 |
| 20260903033409 | 68 | 308 | 5.0 | 18.0 | 0.00 | 0.00 | 0.00 | 75 | 1017.8 |
| 20260903032406 | 68 | 345 | 5.0 | 14.0 | 0.00 | 0.00 | 0.00 | 74 | 1017.8 |
| 20260903031906 | 68 | 160 | 4.0 | 12.0 | 0.00 | 0.00 | 0.00 | 73 | 1017.9 |
| 20260903031407 | 68 | 325 | 5.0 | 16.0 | 0.00 | 0.00 | 0.00 | 73 | 1018.1 |
| 20260903030907 | 68 | 289 | 5.0 | 16.0 | 0.00 | 0.00 | 0.00 | 73 | 1017.9 |
| 20260903030405 | 67 | 309 | 4.0 | 14.0 | 0.00 | 0.00 | 0.00 | 73 | 1018.1 |
| 20260903025906 | 67 | 226 | 4.0 | 12.0 | 0.00 | 0.00 | 0.00 | 74 | 1018.2 |
| 20260903025403 | 66 | 328 | 2.0 | 12.0 | 0.00 | 0.00 | 0.00 | 73 | 1018.2 |
| 20260903024904 | 66 | 241 | 2.0 | 5.0 | 0.00 | 0.00 | 0.00 | 74 | 1018.2 |
| 20260903024407 | 66 | 255 | 2.0 | 7.0 | 0.00 | 0.00 | 0.00 | 74 | 1018.3 |
| 20260903023908 | 66 | 277 | 2.0 | 7.0 | 0.00 | 0.00 | 0.00 | 74 | 1018.3 |
| 20260903023405 | 66 | 279 | 2.0 | 7.0 | 0.00 | 0.00 | 0.00 | 74 | 1018.4 |
| 20260903020901 | 65 | 189 | 2.0 | 7.0 | 0.00 | 0.00 | 0.00 | 75 | 1018.3 |
| 20260903015900 | 65 | 189 | 2.0 | 7.0 | 0.00 | 0.00 | 0.00 | 75 | 1018.2 |
| 20260903015354 | 65 | 190 | 2.0 | 7.0 | 0.00 | 0.00 | 0.00 | 75 | 1018.2 |
| 20260903014353 | 65 | 187 | 4.0 | 9.0 | 0.00 | 0.00 | 0.00 | 75 | 1018.3 |
| 20260903013852 | 65 | 185 | 4.0 | 9.0 | 0.00 | 0.00 | 0.00 | 75 | 1018.3 |
| 20260903012849 | 65 | 183 | 4.0 | 7.0 | 0.00 | 0.00 | 0.00 | 75 | 1018.3 |
| 20260903012351 | 65 | 180 | 4.0 | 9.0 | 0.00 | 0.00 | 0.00 | 75 | 1018.4 |
| 20260903011847 | 65 | 184 | 2.0 | 9.0 | 0.00 | 0.00 | 0.00 | 77 | 1018.5 |
| 20260903011347 | 65 | 191 | 2.0 | 9.0 | 0.00 | 0.00 | 0.00 | 77 | 1018.6 |
| 20260903010846 | 65 | 187 | 2.0 | 7.0 | 0.00 | 0.00 | 0.00 | 77 | 1018.7 |
| 20260903010347 | 65 | 186 | 2.0 | 7.0 | 0.00 | 0.00 | 0.00 | 77 | 1018.6 |
| 20260903005846 | 65 | 208 | 0.0 | 0.0 | 0.00 | 0.00 | 0.00 | 77 | 1018.6 |
| 20260903004842 | 66 | 208 | 0.0 | 2.0 | 0.00 | 0.00 | 0.00 | 75 | 1018.6 |
| 20260903004333 | 66 | 208 | 0.0 | 2.0 | 0.00 | 0.00 | 0.00 | 75 | 1018.7 |
| 20260903003836 | 66 | 208 | 0.0 | 4.0 | 0.00 | 0.00 | 0.00 | 75 | 1018.9 |
| 20260903003335 | 66 | 208 | 0.0 | 4.0 | 0.00 | 0.00 | 0.00 | 75 | 1019.0 |
| 20260903002831 | 66 | 208 | 2.0 | 4.0 | 0.00 | 0.00 | 0.00 | 75 | 1018.9 |
| 20260903002331 | 66 | 218 | 2.0 | 5.0 | 0.00 | 0.00 | 0.00 | 75 | 1018.8 |
| 20260903001833 | 66 | 210 | 2.0 | 9.0 | 0.00 | 0.00 | 0.00 | 75 | 1018.8 |
| 20260903001330 | 66 | 191 | 2.0 | 9.0 | 0.00 | 0.00 | 0.00 | 75 | 1018.9 |
| 20260903000832 | 66 | 186 | 2.0 | 9.0 | 0.00 | 0.00 | 0.00 | 75 | 1018.9 |
| 20260903000332 | 66 | 201 | 0.0 | 4.0 | 0.00 | 0.00 | 0.00 | 77 | 1019.1 |
| 20260902235335 | 66 | 201 | 2.0 | 7.0 | 0.00 | 0.00 | 0.00 | 77 | 1019.3 |
| 20260902234831 | 66 | 201 | 0.0 | 5.0 | 0.00 | 0.00 | 0.00 | 77 | 1019.5 |
| 20260902233834 | 66 | 289 | 2.0 | 7.0 | 0.00 | 0.00 | 0.00 | 77 | 1019.5 |
| 20260902233332 | 66 | 289 | 2.0 | 7.0 | 0.00 | 0.00 | 0.00 | 77 | 1019.5 |
| 20260902232834 | 66 | 209 | 0.0 | 4.0 | 0.00 | 0.00 | 0.00 | 77 | 1019.6 |
| 20260902232333 | 66 | 204 | 0.0 | 5.0 | 0.00 | 0.00 | 0.00 | 77 | 1019.7 |
| 20260902231833 | 66 | 203 | 2.0 | 5.0 | 0.00 | 0.00 | 0.00 | 78 | 1019.7 |
| 20260902225832 | 66 | 214 | 2.0 | 4.0 | 0.00 | 0.00 | 0.00 | 79 | 1019.8 |
| 20260902225330 | 66 | 214 | 0.0 | 4.0 | 0.00 | 0.00 | 0.00 | 79 | 1019.9 |
| 20260902224832 | 66 | 215 | 0.0 | 2.0 | 0.00 | 0.00 | 0.00 | 79 | 1019.9 |
| 20260902224333 | 66 | 215 | 0.0 | 4.0 | 0.00 | 0.00 | 0.00 | 79 | 1020.0 |
| 20260902223832 | 66 | 215 | 2.0 | 4.0 | 0.00 | 0.00 | 0.00 | 79 | 1020.0 |
| 20260902221825 | 65 | 193 | 0.0 | 7.0 | 0.00 | 0.00 | 0.00 | 79 | 1019.8 |
| 20260902221319 | 66 | 193 | 0.0 | 7.0 | 0.00 | 0.00 | 0.00 | 79 | 1019.8 |
| 20260902220822 | 66 | 193 | 0.0 | 4.0 | 0.00 | 0.00 | 0.00 | 79 | 1019.7 |
| 20260902220322 | 66 | 193 | 2.0 | 4.0 | 0.00 | 0.00 | 0.00 | 79 | 1019.8 |
| 20260902215819 | 66 | 193 | 2.0 | 7.0 | 0.00 | 0.00 | 0.00 | 79 | 1019.8 |
| 20260902215320 | 66 | 193 | 2.0 | 7.0 | 0.00 | 0.00 | 0.00 | 79 | 1019.7 |
| 20260902214810 | 66 | 193 | 2.0 | 7.0 | 0.00 | 0.00 | 0.00 | 79 | 1019.8 |
| 20260902213806 | 66 | 202 | 2.0 | 7.0 | 0.00 | 0.00 | 0.00 | 79 | 1019.7 |
| 20260902213307 | 66 | 202 | 0.0 | 7.0 | 0.00 | 0.00 | 0.00 | 79 | 1019.6 |
| 20260902212803 | 66 | 181 | 0.0 | 0.0 | 0.00 | 0.00 | 0.00 | 79 | 1019.8 |
| 20260902212305 | 66 | 180 | 0.0 | 0.0 | 0.00 | 0.00 | 0.00 | 79 | 1019.9 |
| 20260902211803 | 66 | 180 | 0.0 | 0.0 | 0.00 | 0.00 | 0.00 | 79 | 1019.9 |
| 20260902211304 | 66 | 180 | 0.0 | 0.0 | 0.00 | 0.00 | 0.00 | 78 | 1019.9 |
| 20260902210802 | 66 | 180 | 0.0 | 0.0 | 0.00 | 0.00 | 0.00 | 78 | 1019.9 |
| 20260902205750 | 66 | 180 | 0.0 | 0.0 | 0.00 | 0.00 | 0.00 | 78 | 1019.9 |
| 20260902205244 | 66 | 178 | 0.0 | 0.0 | 0.00 | 0.00 | 0.00 | 78 | 1020.0 |
| 20260902204734 | 66 | 178 | 0.0 | 0.0 | 0.00 | 0.00 | 0.00 | 78 | 1020.0 |
| 20260902204243 | 66 | 178 | 0.0 | 4.0 | 0.00 | 0.00 | 0.00 | 78 | 1019.8 |
| 20260902203733 | 66 | 178 | 0.0 | 4.0 | 0.00 | 0.00 | 0.00 | 78 | 1019.8 |
| 20260902203231 | 66 | 178 | 0.0 | 0.0 | 0.00 | 0.00 | 0.00 | 78 | 1020.0 |
| 20260902202731 | 66 | 178 | 0.0 | 0.0 | 0.00 | 0.00 | 0.00 | 78 | 1020.0 |
| 20260902202232 | 66 | 178 | 0.0 | 0.0 | 0.00 | 0.00 | 0.00 | 77 | 1020.0 |
| 20260902201732 | 66 | 178 | 0.0 | 0.0 | 0.00 | 0.00 | 0.00 | 77 | 1020.1 |
| 20260902200734 | 66 | 178 | 0.0 | 0.0 | 0.00 | 0.00 | 0.00 | 77 | 1020.1 |
| 20260902200233 | 66 | 178 | 0.0 | 0.0 | 0.00 | 0.00 | 0.00 | 77 | 1020.1 |
| 20260902195731 | 66 | 178 | 0.0 | 0.0 | 0.00 | 0.00 | 0.00 | 77 | 1020.1 |
| 20260902195231 | 66 | 178 | 0.0 | 0.0 | 0.00 | 0.00 | 0.00 | 77 | 1020.2 |
| 20260902194733 | 66 | 178 | 0.0 | 0.0 | 0.00 | 0.00 | 0.00 | 77 | 1020.2 |
| 20260902194235 | 66 | 178 | 0.0 | 0.0 | 0.00 | 0.00 | 0.00 | 77 | 1020.3 |
| 20260902193232 | 67 | 178 | 0.0 | 0.0 | 0.00 | 0.00 | 0.00 | 75 | 1020.3 |
| 20260902192731 | 67 | 178 | 0.0 | 0.0 | 0.00 | 0.00 | 0.00 | 75 | 1020.2 |
| 20260902192233 | 67 | 178 | 0.0 | 0.0 | 0.00 | 0.00 | 0.00 | 74 | 1020.2 |
| 20260902191733 | 67 | 178 | 0.0 | 0.0 | 0.00 | 0.00 | 0.00 | 74 | 1020.2 |
| 20260902191234 | 67 | 178 | 0.0 | 0.0 | 0.00 | 0.00 | 0.00 | 74 | 1020.3 |
| 20260902190733 | 67 | 178 | 0.0 | 0.0 | 0.00 | 0.00 | 0.00 | 73 | 1020.3 |
| 20260902190233 | 67 | 178 | 0.0 | 0.0 | 0.00 | 0.00 | 0.00 | 73 | 1020.2 |